This demonstration page uses our WeatherBlox Daily Observations layout. Learn more.

Left ArrowRight Arrow

Hourly Observations for March 3, 2020

Temp ( °F °C ) Dew Point ( °F °C ) Humidity (%) Winds ( mph kmh ) Pressure ( in mb ) Visibility ( mi km ) Precip ( " mm )
12:53 am 00:53 Clear 62 16.7 35 1.7 37 37 N 12 19 30.09 1019 10 16 0.00 0.00
1:53 am 01:53 Clear 60 15.6 35 1.7 39 39 NW 6 9 30.10 1019 10 16 0.00 0.00
2:53 am 02:53 Clear 56 13.3 36 2.2 47 47 W 6 9 30.09 1019 10 16 0.00 0.00
3:53 am 03:53 Clear 59 15 36 2.2 42 42 NNW 9 15 30.09 1019 10 16 0.00 0.00
4:53 am 04:53 Clear 58 14.4 36 2.2 44 44 N 12 19 30.09 1019 10 16 0.00 0.00
5:53 am 05:53 Clear 58 14.4 36 2.2 44 44 VRB 5 7 30.10 1019 10 16 0.00 0.00
6:53 am 06:53 Sunny 58 14.4 36 2.2 44 44 NNW 10 17 30.10 1019 10 16 0.00 0.00
7:53 am 07:53 Sunny 61 16.1 36 2.2 39 39 N 9 15 30.10 1019 10 16 0.00 0.00
8:53 am 08:53 Sunny 65 18.3 36 2.2 34 34 N 12 19 30.10 1019 10 16 0.00 0.00
9:53 am 09:53 Sunny 67 19.4 36 2.2 32 32 NNW 14 22 30.09 1019 10 16 0.00 0.00
10:53 am 10:53 Sunny 71 21.7 36 2.2 28 28 NNW 9 15 30.07 1018 10 16 0.00 0.00
11:53 am 11:53 Sunny 74 23.3 37 2.8 26 26 N 12 19 30.05 1018 10 16 0.00 0.00
12:53 pm 12:53 Sunny 78 25.6 36 2.2 22 22 NNW 10 17 30.01 1016 10 16 0.00 0.00
1:53 pm 13:53 Sunny 80 26.7 34 1.1 19 19 NNW 13 20 29.98 1015 10 16 0.00 0.00
2:53 pm 14:53 Sunny 81 27.2 36 2.2 20 20 NNE 14 22 29.96 1015 10 16 0.00 0.00
3:53 pm 15:53 Sunny 81 27.2 35 1.7 19 19 NNE 9 15 29.95 1014 10 16 0.00 0.00
4:53 pm 16:53 Sunny 80 26.7 37 2.8 21 21 N 10 17 29.94 1014 10 16 0.00 0.00
5:53 pm 17:53 Sunny 78 25.6 34 1.1 20 20 N 6 9 29.95 1014 10 16 0.00 0.00
6:53 pm 18:53 Clear 70 21.1 36 2.2 29 29 NNW 5 7 29.98 1015 10 16 0.00 0.00
7:53 pm 19:53 Clear 70 21.1 34 1.1 27 27 Calm 30.00 1016 10 16 0.00 0.00
8:53 pm 20:53 Clear 64 17.8 35 1.7 34 34 N 7 11 30.02 1017 10 16 0.00 0.00
9:53 pm 21:53 Clear 62 16.7 35 1.7 37 37 N 9 15 30.04 1017 10 16 0.00 0.00
10:53 pm 22:53 Clear 59 15 35 1.7 41 41 NNW 7 11 30.05 1018 10 16 0.00 0.00
11:53 pm 23:53 Clear 62 16.7 36 2.2 38 38 NNW 7 11 30.04 1017 10 16 0.00 0.00

Powered by AerisWeather